Wind_Speed
52 45 65 64 56 45 39 32 39 35 36 36 47 45 43 47 47 42 42 26 19 18 19 19 15 20 22 24 25 27 27 29 32 30 26 24 27 25 26 26 25 25 22 21
44 64 66 56 52 55 50 39 35 29 37 32 32 43 46 45 46 44 38 22 17 16 16 18 21 20 20 24 26 28 24 22 29 28 24 25 25 24 26 24 23 22 22 21
62 71 54 50 52 51 49 46 37 34 27 26 27 41 35 43 44 31 27 19 15 8 11 14 17 23 24 28 28 23 17 20 24 22 23 24 21 24 24 22 22 22 19 19
50 54 29 51 56 39 43 44 39 31 26 30 17 26 27 35 40 35 30 22 16 15 18 22 21 21 22 26 19 15 14 17 19 20 23 20 22 23 22 22 22 20 20 17
46 30 44 36 42 44 44 26 29 29 30 28 26 21 28 24 37 27 20 22 20 21 25 24 16 18 16 14 11 10 11 13 16 20 19 19 21 19 20 22 22 21 19 10
31 22 29 54 35 32 20 17 16 13 16 18 23 18 23 34 30 19 14 18 16 15 11 7 11 13 11 11 10 9 9 12 17 17 17 19 16 16 19 19 19 13 11 5
25 27 26 29 31 26 25 22 9 8 8 11 23 20 38 28 15 7 12 10 12 6 4 9 9 10 7 7 7 7 9 14 14 15 15 13 13 15 15 14 13 11 4 4
23 16 31 26 32 34 36 34 15 9 6 8 7 13 24 11 15 9 5 4 8 10 8 10 9 9 7 8 8 8 11 13 13 12 11 10 12 10 9 10 8 5 1 5
20 27 25 27 31 29 35 39 24 6 1 5 7 11 18 16 13 13 6 6 9 11 12 10 8 8 9 9 7 8 12 11 10 9 8 9 9 6 6 7 6 4 4 5
12 15 30 37 30 33 29 34 20 19 10 8 6 7 13 5 15 9 6 4 11 12 14 9 8 9 11 8 5 10 9 8 9 7 7 7 5 3 6 5 4 3 6 8
26 8 19 31 37 39 29 38 20 20 10 6 3 8 13 6 12 10 3 2 5 12 9 7 8 10 10 5 7 8 7 8 7 5 6 5 4 5 6 2 1 4 7 10
18 15 10 38 23 30 36 35 34 21 12 16 7 7 7 14 15 8 5 6 12 11 7 9 7 8 4 6 7 7 7 7 5 4 4 3 2 4 2 3 5 7 7 11
12 13 13 14 16 28 38 32 33 20 12 24 13 5 17 7 14 11 7 7 13 6 6 5 6 6 4 6 8 7 6 5 4 4 3 2 2 3 3 5 7 9 10 11
11 15 13 12 19 16 36 34 31 25 18 16 32 18 14 10 9 5 5 15 14 6 5 3 6 5 5 7 9 7 5 4 4 4 5 4 4 6 7 9 8 10 11 10
2 7 16 23 12 11 15 32 34 35 27 21 15 33 25 15 10 5 9 20 18 8 4 5 6 5 5 7 9 7 4 6 5 6 6 6 8 10 11 12 12 12 11 10
11 2 6 25 17 11 10 13 20 38 38 36 25 20 23 19 16 8 8 25 20 11 7 5 7 7 5 7 8 6 4 7 8 8 8 8 11 12 10 12 13 12 11 12
9 9 0 12 15 12 16 19 12 16 32 32 38 36 26 27 20 10 5 25 17 15 7 5 3 3 4 8 9 6 5 7 9 10 10 10 14 13 12 12 11 9 11 9
4 4 1 3 11 11 13 16 20 16 13 20 34 22 25 35 27 21 10 23 15 16 11 6 4 4 5 10 12 8 7 9 10 12 11 10 13 11 8 7 8 11 9 9
11 5 2 4 10 4 13 17 21 21 21 26 19 24 31 21 25 18 15 24 13 12 13 7 3 4 5 9 12 10 8 10 11 13 12 10 10 11 11 10 9 10 8 8
10 7 7 5 6 7 4 7 26 30 17 23 27 26 24 27 25 21 21 23 21 17 14 13 8 7 9 10 12 12 9 11 12 15 15 12 11 11 9 8 8 8 7 8
4 7 19 9 2 1 2 9 21 18 11 16 27 28 27 28 28 24 24 26 22 20 20 18 14 6 6 9 14 14 12 12 13 15 17 15 12 11 10 7 7 7 7 9
4 4 7 8 4 4 2 12 14 10 15 16 22 27 29 28 28 27 24 27 27 24 19 21 18 10 8 10 16 16 14 14 13 14 15 17 15 12 10 9 7 7 8 8
2 5 4 5 6 11 14 16 13 7 5 19 21 24 28 27 28 30 27 25 24 22 20 23 22 14 8 10 12 18 18 15 15 14 14 14 15 15 13 11 9 8 9 10
8 7 7 6 9 12 9 11 7 5 6 10 19 24 26 26 27 28 24 24 23 28 23 23 27 20 12 13 11 19 19 15 15 16 14 14 14 14 14 14 13 12 11 10
8 7 5 10 7 16 7 7 10 6 6 9 15 21 26 28 26 26 25 26 25 25 26 24 29 25 18 14 15 17 21 19 16 15 17 16 15 15 14 14 14 15 14 13
8 5 7 1 8 6 8 8 10 9 7 11 15 20 22 25 26 28 27 28 29 25 24 25 32 32 23 18 17 18 19 20 19 18 16 17 17 16 16 15 16 17 18 17
Wind_Direction
224 221 226 227 229 232 238 248 248 251 256 258 262 270 275 279 279 287 295 279 257 269 264 257 263 264 266 263 265 269 266 263 267 270 275 289 294 296 300 297 299 310 309 307
214 226 233 230 235 238 241 243 245 249 249 257 269 272 277 277 280 289 286 264 255 268 253 257 264 258 265 269 271 272 266 262 263 266 278 289 292 297 297 293 301 305 303 305
218 238 228 229 233 234 236 236 241 245 256 267 274 276 281 280 281 281 274 253 248 261 259 265 274 271 267 273 275 271 248 257 262 268 281 288 291 296 293 291 300 302 300 306
226 230 225 228 232 225 236 237 243 247 256 261 265 283 276 276 274 276 265 239 236 259 260 268 281 270 274 273 258 231 242 257 262 274 284 287 297 293 292 295 300 297 304 301
220 216 211 224 227 229 241 239 243 245 243 261 261 271 281 280 279 275 251 226 243 259 271 270 272 266 258 237 222 232 246 259 271 281 285 296 293 293 295 298 298 305 303 287
226 234 224 231 225 229 218 228 225 228 237 249 255 247 278 272 276 281 215 220 245 257 244 243 255 248 245 230 237 239 255 270 279 281 292 295 294 298 297 301 311 309 297 263
225 219 218 218 209 209 200 187 178 211 220 256 257 243 256 279 280 157 164 199 226 221 262 264 257 268 248 242 234 243 265 278 277 288 295 293 297 295 305 317 318 316 290 200
209 198 201 192 202 196 196 197 190 194 197 225 204 214 253 272 222 169 175 224 233 228 233 249 249 248 234 231 234 254 275 273 287 295 287 294 292 302 318 335 335 341 92 175
211 222 209 207 188 191 193 202 194 216 227 254 184 252 281 249 211 185 215 244 207 215 214 238 245 226 230 232 248 264 275 280 291 281 287 286 288 312 329 350 359 28 109 148
226 226 216 201 190 204 201 193 197 211 213 233 198 263 244 265 187 196 210 349 211 217 206 238 229 228 225 232 246 276 271 284 280 276 279 278 268 294 333 343 16 78 131 139
230 262 189 172 198 194 192 195 202 194 207 209 243 242 252 197 158 168 151 102 154 191 207 213 226 219 213 237 271 258 272 266 266 269 268 265 270 302 325 0 106 129 143 144
203 234 201 200 199 196 197 197 193 191 196 206 220 250 306 206 228 209 154 144 165 177 203 215 221 224 228 250 239 249 267 253 253 260 255 227 333 345 40 98 124 145 151 149
199 220 216 159 192 201 203 200 196 198 191 200 203 236 214 228 161 137 148 155 181 186 221 222 242 218 242 233 223 243 256 233 219 226 197 142 79 64 89 111 120 146 147 152
179 205 218 201 180 192 201 202 202 198 202 203 215 220 199 162 157 152 195 183 185 186 208 228 236 219 237 216 215 238 238 199 190 185 161 128 107 97 95 118 112 137 153 157
262 201 231 218 189 177 182 201 203 204 209 213 225 225 221 197 213 281 351 200 185 192 204 236 233 223 233 215 214 233 217 172 173 162 144 117 125 112 106 119 114 125 140 143
356 172 262 223 228 242 214 183 206 215 218 224 225 239 228 208 221 266 323 191 185 189 173 233 231 225 226 204 205 217 198 165 161 156 134 122 133 130 116 116 120 121 122 123
1 2 308 217 231 246 245 209 193 198 223 226 229 229 233 228 228 255 284 191 188 191 173 221 286 236 221 194 201 200 185 165 158 150 139 128 141 130 123 115 122 133 131 121
267 348 166 209 176 226 221 214 216 209 213 221 235 241 245 247 237 246 238 206 199 193 195 204 249 250 226 194 198 195 177 167 160 151 147 143 150 157 157 160 128 112 124 140
212 218 213 182 194 151 190 196 202 211 216 230 223 231 230 224 236 214 218 200 204 222 207 201 224 252 243 203 200 191 179 167 164 154 145 143 134 144 147 142 140 137 134 124
206 215 209 192 209 201 180 183 196 210 205 231 233 234 227 222 225 205 210 202 198 211 219 204 218 249 241 211 200 195 179 164 164 165 154 148 142 137 150 149 140 133 127 119
171 181 203 216 239 165 12 191 185 187 216 222 225 229 224 218 212 205 209 211 204 204 215 206 212 230 263 232 204 199 182 164 168 176 169 164 160 154 149 151 145 138 127 120
176 187 183 200 210 169 203 134 174 184 230 207 212 221 222 217 212 212 208 221 216 209 214 210 215 212 247 232 209 202 184 182 173 181 177 174 179 178 171 162 150 136 138 134
106 141 120 188 145 119 97 112 141 189 208 222 212 217 219 216 213 220 216 216 213 205 215 204 211 206 216 224 209 200 200 189 182 179 186 182 179 182 186 180 168 155 146 149
82 83 54 132 183 152 133 148 146 166 200 216 218 218 216 213 216 222 222 211 218 211 221 205 204 209 205 216 199 193 204 200 192 187 185 188 185 187 182 179 176 170 161 159
76 60 63 61 141 164 150 156 185 189 183 210 216 221 223 213 214 218 217 209 208 215 220 215 206 211 210 205 205 201 203 200 198 198 193 191 188 185 191 188 178 174 171 169
47 56 57 48 43 181 169 195 207 209 201 215 216 215 223 223 220 218 208 209 209 209 216 211 209 210 202 193 206 214 212 203 203 207 206 200 195 189 189 190 192 184 181 180
Height
3063 3069 3055 3061 3069 3077 3084 3085 3085 3092 3096 3100 3096 3093 3093 3098 3095 3095 3094 3092 3091 3092 3093 3093 3093 3094 3094 3094 3093 3092 3092 3092 3094 3094 3094 3092 3090 3087 3084 3081 3078 3075 3071 3068
3054 3042 3043 3065 3069 3072 3076 3078 3082 3087 3088 3089 3089 3084 3086 3090 3087 3088 3086 3085 3087 3086 3087 3087 3088 3088 3089 3088 3087 3087 3087 3087 3089 3090 3088 3086 3084 3082 3079 3076 3074 3071 3068 3064
3028 3013 3051 3054 3060 3062 3065 3069 3079 3080 3085 3083 3083 3076 3078 3081 3079 3080 3079 3079 3081 3081 3081 3082 3083 3083 3083 3082 3081 3081 3081 3083 3084 3085 3083 3081 3079 3077 3075 3073 3070 3067 3063 3060
3028 3033 3038 3043 3046 3056 3057 3066 3073 3078 3081 3077 3081 3067 3072 3072 3070 3072 3072 3073 3076 3076 3077 3077 3077 3078 3077 3075 3074 3075 3077 3079 3080 3080 3078 3076 3075 3073 3071 3069 3066 3062 3059 3056
3006 3017 3028 3034 3035 3049 3051 3066 3069 3073 3074 3075 3075 3072 3063 3064 3060 3061 3065 3068 3070 3071 3071 3071 3072 3073 3071 3070 3071 3072 3074 3076 3076 3076 3073 3073 3071 3070 3068 3065 3061 3058 3055 3052
3014 3016 3022 3021 3036 3043 3053 3063 3067 3069 3071 3065 3067 3069 3057 3056 3052 3054 3058 3063 3064 3066 3065 3066 3068 3069 3068 3068 3069 3070 3072 3073 3073 3071 3070 3069 3068 3067 3064 3061 3057 3054 3052 3050
3008 3013 3013 3021 3031 3039 3048 3056 3061 3065 3063 3054 3059 3061 3048 3046 3048 3050 3055 3058 3060 3061 3062 3063 3065 3065 3065 3066 3067 3068 3069 3070 3068 3068 3067 3066 3065 3064 3061 3058 3054 3052 3049 3049
3001 3005 3004 3008 3016 3023 3035 3045 3047 3050 3050 3046 3048 3050 3037 3041 3045 3048 3051 3053 3055 3058 3059 3061 3062 3063 3063 3064 3065 3066 3066 3066 3065 3065 3064 3064 3063 3061 3059 3056 3053 3050 3049 3050
2993 2994 2997 3004 3012 3020 3028 3033 3041 3043 3044 3043 3043 3039 3034 3036 3041 3045 3048 3049 3051 3054 3056 3059 3060 3060 3061 3062 3063 3063 3064 3063 3062 3062 3063 3062 3061 3059 3057 3055 3053 3050 3050 3051
2989 2990 2992 2998 3010 3014 3018 3031 3037 3040 3041 3041 3035 3036 3033 3031 3037 3041 3044 3045 3048 3050 3054 3056 3057 3058 3059 3060 3061 3061 3061 3061 3061 3061 3061 3060 3059 3058 3056 3055 3053 3052 3052 3053
2986 2988 2988 2993 2991 2997 3011 3017 3025 3033 3034 3031 3030 3028 3030 3032 3036 3040 3042 3043 3045 3050 3053 3054 3055 3056 3057 3058 3059 3060 3060 3059 3059 3060 3060 3059 3058 3056 3055 3054 3053 3053 3054 3054
2981 2983 2983 2981 2989 2997 3002 3007 3015 3020 3027 3029 3028 3026 3025 3030 3034 3037 3039 3041 3045 3049 3051 3053 3054 3055 3055 3057 3058 3058 3058 3058 3058 3059 3059 3058 3057 3055 3054 3054 3053 3054 3056 3056
2978 2982 2979 2983 2991 2994 2995 3003 3010 3016 3021 3023 3027 3024 3026 3029 3032 3035 3038 3041 3044 3047 3050 3051 3052 3053 3054 3056 3057 3057 3057 3057 3057 3058 3058 3057 3057 3056 3055 3055 3054 3055 3057 3058
2974 2976 2977 2974 2981 2987 2992 3000 3007 3012 3016 3018 3017 3023 3024 3026 3031 3034 3037 3039 3043 3047 3049 3050 3051 3052 3053 3055 3056 3056 3056 3056 3057 3058 3058 3057 3057 3057 3056 3056 3056 3057 3059 3060
2974 2974 2975 2975 2978 2982 2987 2994 3001 3005 3011 3013 3016 3017 3020 3024 3028 3031 3034 3039 3042 3045 3048 3048 3049 3050 3052 3054 3054 3056 3055 3055 3056 3057 3057 3058 3058 3058 3058 3058 3058 3060 3061 3063
2973 2973 2972 2975 2979 2983 2986 2990 2995 3001 3005 3008 3012 3012 3016 3020 3024 3028 3032 3035 3040 3044 3046 3047 3048 3049 3051 3053 3053 3055 3054 3055 3057 3057 3058 3059 3060 3061 3062 3061 3062 3063 3064 3064
2973 2973 2975 2977 2977 2981 2984 2986 2992 2996 3000 3007 3009 3001 3016 3017 3021 3026 3031 3034 3038 3042 3045 3046 3047 3049 3050 3051 3053 3054 3054 3055 3056 3057 3059 3060 3061 3063 3065 3065 3065 3066 3066 3066
2972 2973 2973 2975 2978 2978 2981 2982 2989 2992 2997 2999 3001 3008 3010 3013 3015 3020 3025 3032 3037 3040 3043 3045 3046 3047 3049 3050 3052 3053 3054 3055 3057 3057 3059 3061 3062 3064 3066 3068 3069 3069 3068 3068
2970 2971 2972 2973 2975 2976 2977 2979 2983 2987 2992 2993 2996 2999 3003 3008 3012 3017 3022 3027 3034 3038 3042 3044 3046 3046 3048 3049 3051 3053 3054 3055 3056 3058 3060 3062 3064 3065 3067 3069 3070 3071 3071 3071
2967 2969 2972 2973 2972 2967 2974 2973 2976 2982 2987 2988 2992 2995 2998 3003 3009 3014 3019 3022 3027 3033 3040 3042 3044 3045 3046 3048 3050 3053 3054 3055 3057 3059 3061 3063 3065 3067 3069 3070 3072 3073 3073 3073
2964 2963 2968 2970 2971 2971 2970 2970 2974 2981 2984 2982 2986 2991 2995 2998 3005 3010 3015 3019 3025 3029 3035 3039 3041 3044 3045 3047 3049 3052 3054 3055 3057 3059 3061 3063 3065 3068 3070 3071 3073 3074 3075 3076
2963 2965 2967 2969 2969 2972 2969 2969 2973 2975 2974 2978 2982 2986 2990 2995 3001 3006 3011 3016 3021 3026 3030 3036 3039 3041 3043 3045 3048 3050 3053 3054 3056 3059 3061 3062 3065 3067 3069 3072 3073 3075 3076 3078
2964 2963 2963 2966 2967 2968 2968 2968 2970 2971 2973 2976 2979 2981 2986 2992 2996 3001 3007 3012 3017 3022 3026 3031 3036 3039 3041 3043 3045 3049 3051 3053 3056 3058 3060 3062 3064 3067 3069 3071 3074 3075 3077 3078
2962 2962 2964 2964 2965 2966 2967 2969 2969 2970 2971 2974 2975 2978 2982 2988 2992 2997 3002 3008 3013 3018 3022 3027 3032 3036 3039 3041 3044 3047 3049 3052 3055 3057 3059 3062 3064 3066 3068 3070 3072 3075 3077 3079
2964 2964 2964 2963 2964 2966 2968 2969 2969 2969 2969 2970 2972 2974 2976 2982 2988 2992 2998 3003 3009 3013 3018 3023 3028 3033 3036 3039 3042 3043 3046 3050 3053 3056 3058 3060 3063 3065 3067 3070 3072 3074 3076 3078
2965 2966 2965 2964 2964 2964 2966 2968 2968 2969 2969 2968 2969 2971 2973 2977 2982 2987 2993 2998 3004 3010 3014 3018 3024 3028 3034 3037 3039 3041 3043 3047 3051 3054 3056 3059 3061 3064 3066 3069 3071 3073 3075 3077